Wind_Speed
10 11 11 11 11 11 11 11 11 10 9 9 8 7 5 5 5 7 7 8 9 10 11 12 12 12 13 13 13 13 14 15 14 13 14 14 15 14 14 14 14 13 13
10 10 11 11 11 11 11 11 11 10 9 9 8 7 6 4 5 6 7 8 9 10 11 11 12 12 13 14 14 14 14 14 14 14 14 14 15 14 15 14 14 13 13
10 11 11 12 12 12 11 11 11 10 9 9 8 7 6 4 3 5 6 7 8 10 10 11 11 12 13 13 14 14 14 15 15 15 15 15 15 15 15 15 14 14 13
10 11 12 12 12 12 11 11 11 10 10 9 8 7 6 4 3 3 5 6 7 9 10 10 12 13 13 14 14 15 14 14 15 16 15 15 16 16 15 15 15 15 14
10 10 11 11 12 12 11 11 10 10 9 9 8 7 6 5 3 1 3 5 7 8 9 10 11 12 13 14 14 15 14 15 16 16 17 16 16 16 15 15 15 15 15
9 10 11 11 12 12 12 11 11 10 9 9 8 7 6 5 4 2 1 4 6 7 8 9 10 12 13 13 14 14 15 15 16 17 18 18 17 16 16 16 16 16 16
9 10 11 12 12 12 12 12 11 10 10 9 8 8 6 6 4 3 1 3 5 6 7 9 10 12 14 13 14 14 15 16 17 17 18 18 19 18 18 17 17 17 17
9 10 10 11 12 13 13 13 12 11 10 9 9 8 7 6 5 3 2 2 4 6 7 8 9 10 12 13 14 14 15 16 17 18 18 19 19 19 19 19 18 19 19
9 9 10 11 12 13 14 14 13 12 11 10 9 8 7 6 5 4 3 2 3 4 6 8 9 10 11 12 12 13 15 16 17 18 18 18 19 20 20 20 19 19 20
8 9 10 11 12 13 13 14 14 13 11 11 10 9 8 7 6 5 4 3 4 4 5 7 9 11 11 12 13 13 14 16 17 17 18 19 20 20 21 21 21 20 21
8 9 10 10 11 12 13 13 14 13 12 11 11 10 8 7 7 5 5 4 5 5 6 8 9 11 12 13 14 15 15 16 17 18 18 20 21 21 21 22 22 22 23
7 9 10 10 11 11 12 13 13 12 12 11 11 10 9 8 8 7 6 5 6 6 7 9 10 11 12 14 15 16 17 17 17 18 19 20 21 21 22 22 23 24 25
7 9 10 11 11 12 12 13 12 12 12 12 11 10 10 9 9 8 8 7 8 8 9 10 11 12 13 13 15 17 17 19 19 19 20 21 22 22 23 23 24 25 26
7 9 10 11 11 12 12 13 12 12 12 12 12 11 11 10 10 10 10 10 10 10 11 12 13 13 14 14 15 17 18 20 21 21 21 22 23 24 25 25 26 26 27
8 10 11 11 11 12 12 13 12 13 13 13 13 13 12 12 12 12 12 12 13 13 13 14 15 15 16 17 18 19 20 21 22 23 24 24 24 25 26 26 27 27 27
8 10 11 11 12 13 13 13 14 14 14 14 14 15 14 14 13 13 14 14 15 15 16 16 17 17 18 19 20 20 22 23 24 25 26 26 27 26 26 27 28 27 28
10 10 11 12 13 14 14 15 16 16 16 16 16 16 16 16 16 15 16 16 17 18 18 19 19 20 21 21 22 22 22 24 25 25 27 27 28 28 28 28 29 30 30
11 12 13 14 14 15 16 16 17 17 17 18 18 18 18 18 18 18 19 19 20 20 21 21 22 23 24 25 25 25 25 25 26 27 28 29 30 30 30 30 30 31 31
13 14 14 15 16 17 17 18 18 18 19 20 20 20 20 21 21 21 21 22 22 23 23 23 24 25 26 27 27 27 27 27 27 29 30 31 31 31 32 32 32 32 32
15 15 16 17 18 18 19 19 20 20 21 22 22 23 23 23 24 24 24 24 25 25 25 26 26 27 28 29 30 30 30 29 29 30 31 32 33 34 34 34 34 34 34
16 17 18 19 20 20 21 21 22 23 24 24 25 26 26 26 27 27 27 27 28 28 28 29 30 31 31 32 33 33 33 33 33 33 33 34 34 35 36 37 37 37 36
18 18 19 20 22 23 24 24 25 26 26 27 28 29 29 29 29 29 30 30 31 31 32 33 34 34 34 34 34 35 35 35 36 36 37 37 37 37 37 38 39 39 39
19 20 21 22 24 25 26 26 27 28 29 30 30 31 31 31 31 32 32 33 33 34 35 36 36 35 35 35 36 37 37 37 37 38 39 40 40 40 40 40 40 40 41
23 23 25 26 26 27 28 29 30 30 31 32 33 33 33 33 33 34 34 35 36 37 38 38 37 36 36 36 37 38 38 39 39 39 40 41 42 42 42 42 42 42 42
26 27 28 28 29 29 31 32 32 33 34 34 34 34 35 35 36 37 37 38 38 39 39 39 39 38 38 39 39 39 39 40 40 40 40 42 42 42 43 43 43 44 43
28 29 30 30 31 32 34 35 35 36 36 36 35 36 37 38 39 39 40 41 41 40 41 41 41 40 40 41 40 41 41 41 42 42 42 43 43 43 43 43 43 44 44
Wind_Direction
0 358 356 354 352 351 350 349 347 345 344 343 340 334 316 285 263 244 234 227 224 221 215 213 211 211 208 207 204 202 204 204 203 204 198 195 191 189 187 186 187 184 187
359 356 356 355 355 355 354 354 352 349 348 347 346 341 330 298 266 246 234 228 226 222 215 213 212 211 209 207 207 208 209 208 204 203 197 195 193 193 192 190 189 189 191
355 358 359 359 359 358 358 357 358 355 354 353 353 351 344 326 277 247 237 229 226 221 217 215 212 211 210 209 208 208 212 209 204 203 200 198 196 198 199 196 195 194 195
358 358 359 360 2 2 0 358 359 0 1 360 359 358 356 347 321 259 237 228 225 219 216 217 215 212 212 209 208 207 208 204 203 202 201 201 200 200 201 200 199 199 198
359 359 1 3 4 3 2 359 358 2 5 5 4 4 5 2 353 310 242 225 224 219 218 217 216 215 213 211 208 207 206 207 204 208 208 206 207 206 205 204 202 200 198
2 4 7 8 9 10 9 6 2 2 4 5 7 8 8 11 4 347 259 226 226 223 220 219 221 220 216 214 213 212 210 209 210 212 211 209 210 211 210 208 208 205 204
12 14 15 15 13 13 12 11 9 9 9 9 9 9 8 8 7 359 301 236 228 224 223 222 225 225 222 219 217 219 216 214 213 213 215 215 215 214 214 211 210 209 209
17 16 16 17 16 14 15 15 15 14 11 9 7 7 7 7 6 357 322 261 236 230 228 227 225 230 229 225 223 225 222 219 219 218 220 221 220 218 216 216 215 214 215
13 13 14 14 14 15 16 17 15 12 11 10 7 4 5 4 1 357 339 287 259 246 237 231 229 231 232 231 229 229 226 224 225 223 222 223 223 221 220 219 220 219 219
7 8 8 8 9 12 13 14 12 11 11 9 6 4 1 360 359 355 337 311 282 267 257 248 241 240 238 238 236 233 233 230 229 228 227 228 228 228 225 223 223 223 223
2 2 0 1 4 6 7 8 7 6 6 5 3 1 358 356 351 345 332 316 299 279 268 261 256 253 248 244 242 239 237 238 236 234 233 232 232 232 230 228 227 227 225
356 356 355 356 357 359 0 360 359 0 0 359 356 355 351 346 342 338 328 317 306 293 278 268 263 261 256 252 248 245 243 243 242 239 238 236 235 235 235 234 234 233 231
353 353 351 350 350 353 355 356 356 355 354 351 349 347 343 336 331 327 322 312 304 294 287 279 271 265 262 260 254 251 249 246 245 243 241 240 238 237 239 239 238 238 237
347 350 349 348 347 350 353 353 353 352 350 347 344 340 336 329 322 314 310 307 304 296 289 282 276 270 265 263 259 255 253 251 249 246 244 242 242 241 241 242 241 241 241
341 342 343 345 346 347 348 347 348 347 344 341 339 335 329 325 318 309 303 299 296 294 288 283 278 274 268 264 262 261 259 257 252 251 249 246 245 244 244 243 243 243 243
329 333 338 339 339 340 341 340 340 339 338 336 335 333 327 322 316 309 302 297 292 290 286 282 279 277 273 269 266 264 263 260 256 253 251 249 248 248 249 247 245 244 244
317 325 331 332 333 334 333 332 333 332 332 332 331 329 326 322 316 311 305 299 293 289 286 282 279 277 275 273 271 269 268 262 258 255 254 252 251 251 251 250 249 247 247
315 318 320 322 324 325 326 326 327 328 327 327 327 326 323 320 316 311 307 304 298 292 287 284 281 278 277 276 274 274 272 266 260 257 255 254 253 252 252 251 251 251 250
310 311 314 316 318 320 321 321 321 322 322 322 322 321 319 317 314 310 307 303 299 295 290 286 283 281 278 277 276 275 273 268 264 259 256 255 254 253 252 251 252 252 252
308 310 312 314 315 317 317 317 318 317 317 317 317 317 316 314 311 308 305 303 300 296 292 289 286 283 280 278 276 274 271 267 264 262 259 258 256 255 253 253 252 252 253
306 309 311 312 313 315 315 315 314 313 313 313 313 313 312 311 309 307 305 303 301 298 294 291 288 285 282 278 275 272 270 266 265 262 260 259 258 256 254 253 252 252 252
302 305 308 310 312 313 313 312 311 311 311 310 310 310 310 309 307 305 304 302 300 298 295 293 290 286 282 279 275 272 270 267 265 263 261 260 259 257 256 255 254 253 252
302 304 306 308 310 311 311 310 310 309 309 309 310 310 309 307 306 305 303 301 300 298 296 294 291 287 283 279 276 274 272 269 265 263 261 260 259 258 256 255 255 254 253
301 303 304 306 308 308 309 309 309 308 308 309 309 308 307 306 304 304 303 302 300 298 297 294 291 287 284 281 278 275 273 270 267 265 262 261 260 258 256 255 254 253 252
299 301 303 304 305 306 307 308 307 307 307 308 307 306 305 305 304 303 303 302 301 299 297 294 291 288 285 282 280 276 274 272 269 266 264 262 260 259 256 255 254 253 251
299 300 301 302 303 304 306 307 306 306 306 306 305 304 304 304 304 303 303 302 300 298 297 295 292 288 285 282 279 277 275 273 271 268 266 264 261 259 257 255 253 252 251
Height
5876 5874 5872 5870 5868 5866 5863 5861 5860 5858 5856 5854 5852 5851 5850 5849 5849 5849 5849 5850 5851 5852 5853 5855 5856 5858 5859 5861 5863 5864 5866 5867 5869 5870 5871 5872 5874 5876 5878 5879 5881 5883 5884
5875 5873 5871 5869 5867 5865 5863 5861 5859 5857 5855 5853 5851 5850 5849 5848 5847 5847 5848 5848 5849 5851 5852 5853 5855 5857 5858 5860 5862 5863 5864 5866 5868 5869 5871 5872 5875 5877 5878 5880 5881 5883 5884
5875 5873 5871 5869 5866 5864 5862 5860 5858 5856 5854 5852 5851 5849 5848 5847 5846 5846 5846 5847 5848 5849 5851 5852 5854 5856 5857 5859 5860 5862 5863 5864 5866 5868 5870 5872 5874 5876 5878 5880 5881 5883 5884
5874 5872 5870 5868 5866 5863 5861 5860 5858 5856 5854 5852 5850 5849 5847 5846 5845 5845 5845 5846 5847 5848 5850 5851 5853 5854 5856 5857 5859 5861 5861 5862 5865 5868 5870 5872 5874 5876 5878 5880 5881 5882 5884
5874 5872 5870 5868 5865 5863 5861 5859 5857 5855 5853 5851 5850 5849 5847 5846 5845 5845 5845 5846 5846 5847 5849 5850 5851 5853 5854 5856 5858 5859 5861 5862 5865 5867 5869 5871 5873 5875 5877 5878 5880 5882 5883
5873 5871 5869 5867 5865 5863 5861 5859 5856 5855 5853 5851 5850 5848 5847 5846 5845 5845 5845 5845 5846 5847 5848 5849 5851 5852 5854 5855 5857 5858 5860 5862 5864 5866 5868 5870 5872 5874 5876 5877 5879 5880 5882
5873 5871 5870 5868 5865 5863 5861 5859 5856 5854 5853 5851 5850 5849 5847 5846 5845 5845 5845 5845 5846 5846 5847 5848 5850 5851 5853 5854 5855 5857 5859 5860 5862 5864 5866 5868 5870 5872 5874 5876 5877 5879 5881
5873 5871 5870 5868 5866 5864 5861 5859 5857 5854 5853 5851 5850 5849 5848 5847 5846 5845 5845 5845 5845 5846 5846 5847 5849 5850 5851 5853 5854 5856 5857 5859 5861 5863 5864 5866 5868 5870 5872 5874 5875 5877 5879
5873 5871 5870 5868 5866 5864 5862 5859 5857 5855 5853 5852 5850 5849 5848 5847 5846 5845 5845 5845 5845 5845 5846 5846 5847 5849 5850 5851 5852 5854 5856 5857 5859 5860 5862 5864 5865 5867 5870 5871 5873 5875 5877
5872 5871 5870 5868 5866 5864 5862 5860 5857 5855 5853 5852 5850 5849 5848 5846 5846 5845 5845 5844 5844 5845 5845 5845 5846 5847 5848 5849 5851 5852 5853 5855 5857 5858 5860 5861 5863 5865 5867 5869 5870 5872 5874
5872 5871 5869 5868 5866 5864 5862 5860 5858 5855 5853 5852 5850 5849 5847 5846 5846 5845 5845 5844 5844 5844 5844 5845 5845 5846 5846 5847 5848 5850 5851 5852 5854 5855 5857 5858 5860 5862 5864 5865 5867 5869 5871
5871 5870 5869 5867 5866 5864 5862 5860 5857 5855 5853 5851 5850 5848 5847 5846 5845 5845 5844 5843 5843 5843 5843 5843 5843 5844 5844 5845 5846 5847 5848 5850 5851 5852 5854 5855 5857 5858 5860 5862 5864 5865 5867
5870 5869 5868 5866 5865 5863 5861 5859 5857 5855 5853 5851 5849 5848 5846 5845 5844 5844 5843 5842 5842 5841 5841 5841 5841 5841 5842 5842 5843 5844 5845 5846 5847 5849 5850 5852 5853 5855 5856 5858 5859 5861 5863
5869 5868 5867 5866 5864 5862 5860 5858 5856 5854 5852 5850 5848 5847 5845 5844 5843 5842 5841 5841 5840 5840 5839 5839 5838 5838 5839 5839 5840 5841 5842 5842 5843 5844 5846 5847 5849 5850 5851 5853 5854 5856 5858
5868 5867 5866 5865 5863 5861 5859 5857 5855 5853 5851 5849 5847 5845 5843 5842 5840 5839 5839 5838 5838 5837 5837 5836 5835 5835 5835 5835 5836 5836 5837 5838 5838 5839 5841 5842 5843 5844 5846 5847 5849 5851 5852
5867 5866 5864 5863 5861 5859 5857 5855 5853 5851 5849 5847 5845 5843 5841 5839 5838 5836 5835 5834 5833 5833 5832 5832 5831 5831 5831 5831 5831 5831 5831 5832 5833 5834 5835 5836 5838 5839 5840 5841 5843 5845 5846
5865 5864 5862 5861 5859 5857 5855 5853 5851 5849 5847 5844 5842 5840 5838 5836 5834 5833 5831 5830 5828 5828 5827 5827 5826 5826 5825 5825 5825 5825 5825 5825 5826 5827 5828 5830 5831 5832 5834 5835 5836 5838 5840
5862 5861 5860 5858 5856 5854 5852 5850 5848 5846 5844 5841 5839 5837 5834 5832 5830 5828 5826 5824 5823 5822 5821 5821 5820 5819 5819 5818 5818 5818 5818 5818 5819 5820 5821 5822 5823 5825 5826 5828 5829 5831 5832
5859 5857 5856 5855 5853 5851 5849 5847 5845 5842 5840 5837 5835 5832 5830 5827 5825 5822 5820 5818 5817 5815 5814 5813 5813 5812 5811 5811 5810 5810 5810 5810 5810 5811 5812 5814 5815 5816 5818 5820 5821 5823 5824
5855 5854 5852 5851 5849 5847 5845 5842 5840 5838 5835 5832 5830 5827 5824 5821 5819 5816 5814 5811 5809 5808 5806 5805 5804 5803 5802 5801 5801 5800 5800 5800 5801 5802 5803 5804 5806 5807 5809 5811 5813 5814 5816
5851 5850 5848 5846 5844 5842 5840 5838 5835 5833 5830 5827 5824 5821 5818 5814 5811 5809 5806 5804 5801 5799 5797 5795 5794 5793 5792 5791 5790 5790 5790 5790 5791 5791 5792 5794 5795 5797 5798 5800 5802 5804 5806
5847 5845 5843 5841 5839 5837 5834 5832 5829 5826 5823 5820 5817 5814 5810 5807 5804 5800 5797 5794 5792 5789 5787 5784 5782 5780 5779 5778 5777 5777 5777 5778 5779 5780 5780 5782 5783 5785 5787 5789 5791 5793 5795
5842 5840 5838 5836 5834 5831 5828 5826 5823 5819 5816 5813 5809 5805 5802 5798 5795 5791 5788 5785 5782 5778 5775 5772 5769 5767 5766 5765 5764 5764 5763 5764 5765 5766 5767 5769 5770 5772 5774 5776 5778 5780 5783
5837 5834 5832 5830 5827 5824 5822 5818 5815 5812 5808 5804 5800 5796 5792 5789 5785 5781 5778 5775 5771 5767 5763 5759 5757 5754 5753 5751 5750 5749 5749 5750 5751 5751 5752 5754 5755 5757 5759 5762 5764 5767 5769
5830 5828 5825 5823 5820 5817 5814 5810 5807 5803 5799 5795 5791 5787 5783 5779 5775 5771 5767 5763 5759 5755 5750 5747 5744 5741 5739 5737 5735 5734 5734 5734 5736 5737 5737 5738 5740 5741 5744 5747 5749 5752 5755
5823 5821 5818 5815 5812 5809 5805 5802 5798 5794 5790 5786 5782 5778 5773 5769 5765 5760 5755 5751 5747 5742 5738 5734 5730 5728 5725 5723 5721 5720 5719 5719 5719 5721 5722 5722 5724 5725 5728 5732 5734 5737 5740